User: anonymous   Login
Location: St. Malo Provincial Park
(49.3214°N, 96.9305°W)
Time: 16:04:30
(UTC-05:00)
Language:

Iridium 6 - Orbit

View from above orbital plane
View from above orbital plane
View from above satellite
View from above satellite

Ground track
Ground track

The orbit data is extracted from the following two-line orbital elements,

1 24794U 97020C   17113.73460799 +.00000163 +00000-0 +51237-4 0  9994
2 24794 086.3970 341.6798 0002140 086.5467 273.5973 14.34220716045153
Epoch (UTC): 23 April 2017 17:37:50
Eccentricity: 0.0002140
inclination: 86.3970°
perigee height: 776 km
apogee height: 779 km
right ascension of ascending node: 341.6798°
argument of perigee: 86.5467°
revolutions per day: 14.34220716
mean anomaly at epoch: 273.5973°
orbit number at epoch: 4515

The dashed part of the orbit path shows where the satellite is in the earth's shadow,  

DLR